Location: Fort Wayne
(41.1310°N, 85.1290°W)
Time: 18:43:10
(UTC-04:00)

Meteor 2-9 Rocket - Visible Passes

Search period start: 25 May 2016 00:00
Search period end: 04 June 2016 00:00
Orbit: 791 x 896 km, 81.3° (Epoch: 24 May)

Date Brightness Start Highest point End Pass type
(mag) Time Alt. Az. Time Alt. Az. Time Alt. Az.
25 May 5.8 23:00:56 10° NNW 23:05:51 31° W 23:10:49 10° SSW visible
26 May 5.7 22:46:42 10° NNW 22:51:48 35° W 22:56:58 10° SSW visible
27 May 5.5 22:32:29 10° NNW 22:37:45 39° W 22:43:05 10° SSW visible
28 May 5.3 22:18:17 10° NNW 22:23:41 45° W 22:29:10 10° SSW visible
29 May 5.1 22:04:07 10° NNW 22:09:38 51° W 22:15:14 10° SSW visible
30 May 4.9 21:49:57 10° NNW 21:55:34 58° W 22:01:16 10° S visible
31 May 4.8 21:35:47 10° NNW 21:41:29 66° W 21:47:15 10° S visible
02 Jun 7.2 22:54:16 10° WNW 22:55:09 10° W 22:56:01 10° W visible
03 Jun 7.1 22:39:01 10° WNW 22:41:09 12° W 22:43:18 10° WSW visible
